This is the latest recevied weather packets stored in our database for station/object PY5TG-13. If no packets are shown the sender has not sent any weather packets the latest 10 day(s).
| Time | Temp. | Humidity | Pressure | Rain* | Wind** | Luminosity | Snow |
|---|---|---|---|---|---|---|---|
| 1787847665 | 23.33° C | 68% | 1011.6 hPa | 0 mm | - | 322 W/m² | - |
| 1787847601 | 23.33° C | 67% | 1011.4 hPa | 0 mm | - | 384 W/m² | - |
| 1787847065 | 22.78° C | 69% | 1011.7 hPa | 0 mm | - | 377 W/m² | - |
| 1787847001 | 22.78° C | 69% | 1011.7 hPa | 0 mm | - | 371 W/m² | - |
| 1787846406 | 22.78° C | 68% | 1012.1 hPa | 0 mm | - | 397 W/m² | - |
| 1787845813 | 22.22° C | 70% | 1012.4 hPa | 0 mm | - | 372 W/m² | - |
| 1787845231 | 22.22° C | 71% | 1012.6 hPa | 0 mm | - | 404 W/m² | - |
| 1787844612 | 22.78° C | 69% | 1012.7 hPa | 0 mm | - | 396 W/m² | - |
| 1787844010 | 21.67° C | 75% | 1013.2 hPa | 0 mm | - | 399 W/m² | - |
| 1787843418 | 21.67° C | 72% | 1013.4 hPa | 0 mm | - | 396 W/m² | - |
| 1787842809 | 21.67° C | 72% | 1013.7 hPa | 0 mm | - | 397 W/m² | - |
| 1787842266 | 21.67° C | 72% | 1013.9 hPa | 0 mm | - | 409 W/m² | - |
| 1787842201 | 21.67° C | 72% | 1014 hPa | 0 mm | - | 396 W/m² | - |
| 1787841666 | 21.11° C | 74% | 1014.3 hPa | 0 mm | - | 395 W/m² | - |
| 1787841601 | 21.11° C | 73% | 1014.3 hPa | 0 mm | - | 394 W/m² | - |
| 1787841068 | 20.56° C | 76% | 1014.7 hPa | 0 mm | - | 404 W/m² | - |
| 1787841001 | 20.56° C | 75% | 1014.4 hPa | 0 mm | - | 306 W/m² | - |
| 1787839867 | 20.56° C | 76% | 1014.9 hPa | 0 mm | - | 380 W/m² | - |
| 1787839801 | 20.56° C | 75% | 1014.9 hPa | 0 mm | - | 299 W/m² | - |
| 1787839282 | 21.11° C | 74% | 1014.9 hPa | 0 mm | - | 309 W/m² | - |
| 1787839202 | 20.56° C | 76% | 1014.8 hPa | 0 mm | - | 359 W/m² | - |
| 1787838612 | 20° C | 78% | 1015.1 hPa | 0 mm | - | 348 W/m² | - |
| 1787838068 | 20° C | 75% | 1015.1 hPa | 0 mm | - | 343 W/m² | - |
| 1787838002 | 20° C | 75% | 1014.9 hPa | 0 mm | - | 336 W/m² | - |
| 1787837401 | 20.56° C | 75% | 1014.7 hPa | 0 mm | - | 323 W/m² | - |
* Rain latest hour (hover to see other rain measurements)
** Current wind speed in m/s (hover to see current wind gust speed)